| time (UTC) | temp C | wind direction | speed KPH | gust KPH | rain 1hr cm | rain 24hr cm | rain mn cm | humidity % | barometer mb |
| 20260504195021 | 23 | 157 | 6.4 | 22.5 | 0.00 | 0.00 | 0.00 | 31 | 1009.0 |
| 20260504194545 | 23 | 264 | 4.8 | 25.7 | 0.00 | 0.00 | 0.00 | 32 | 1008.9 |
| 20260504194022 | 23 | 96 | 9.7 | 27.4 | 0.00 | 0.00 | 0.00 | 31 | 1008.9 |
| 20260504193522 | 23 | 216 | 12.9 | 27.4 | 0.00 | 0.00 | 0.00 | 31 | 1009.0 |
| 20260504193036 | 23 | 180 | 6.4 | 19.3 | 0.00 | 0.00 | 0.00 | 32 | 1008.9 |
| 20260504192521 | 23 | 196 | 4.8 | 25.7 | 0.00 | 0.00 | 0.00 | 32 | 1008.9 |
| 20260504192021 | 23 | 226 | 8.0 | 25.7 | 0.00 | 0.00 | 0.00 | 32 | 1009.1 |
| 20260504191537 | 23 | 213 | 9.7 | 20.9 | 0.00 | 0.00 | 0.00 | 32 | 1009.1 |
| 20260504191022 | 23 | 182 | 8.0 | 19.3 | 0.00 | 0.00 | 0.00 | 31 | 1009.1 |
| 20260504190522 | 23 | 236 | 8.0 | 32.2 | 0.00 | 0.00 | 0.00 | 31 | 1009.2 |
| 20260504190041 | 23 | 221 | 4.8 | 32.2 | 0.00 | 0.00 | 0.00 | 31 | 1009.2 |
| 20260504185520 | 23 | 223 | 9.7 | 24.1 | 0.00 | 0.00 | 0.00 | 33 | 1009.3 |
| 20260504185021 | 23 | 211 | 4.8 | 20.9 | 0.00 | 0.00 | 0.00 | 32 | 1009.3 |
| 20260504184541 | 23 | 111 | 8.0 | 20.9 | 0.00 | 0.00 | 0.00 | 32 | 1009.4 |
| 20260504184022 | 22 | 204 | 8.0 | 25.7 | 0.00 | 0.00 | 0.00 | 33 | 1009.4 |
| 20260504183522 | 22 | 217 | 12.9 | 25.7 | 0.00 | 0.00 | 0.00 | 33 | 1009.6 |
| 20260504183038 | 23 | 219 | 3.2 | 25.7 | 0.00 | 0.00 | 0.00 | 33 | 1009.6 |
| 20260504182521 | 23 | 206 | 3.2 | 25.7 | 0.00 | 0.00 | 0.00 | 32 | 1009.8 |
| 20260504182023 | 23 | 234 | 9.7 | 24.1 | 0.00 | 0.00 | 0.00 | 32 | 1009.9 |
| 20260504181538 | 22 | 250 | 6.4 | 22.5 | 0.00 | 0.00 | 0.00 | 33 | 1010.0 |
| 20260504181021 | 22 | 194 | 8.0 | 29.0 | 0.00 | 0.00 | 0.00 | 33 | 1010.1 |
| 20260504180523 | 22 | 197 | 11.3 | 29.0 | 0.00 | 0.00 | 0.00 | 33 | 1010.2 |
| 20260504180047 | 22 | 180 | 11.3 | 22.5 | 0.00 | 0.00 | 0.00 | 33 | 1010.3 |
| 20260504175521 | 22 | 223 | 9.7 | 20.9 | 0.00 | 0.00 | 0.00 | 33 | 1010.2 |
| 20260504175022 | 22 | 250 | 8.0 | 20.9 | 0.00 | 0.00 | 0.00 | 33 | 1010.3 |
| 20260504174541 | 22 | 290 | 11.3 | 20.9 | 0.00 | 0.00 | 0.00 | 33 | 1010.4 |
| 20260504174022 | 22 | 219 | 6.4 | 27.4 | 0.00 | 0.00 | 0.00 | 33 | 1010.3 |
| 20260504173520 | 22 | 217 | 11.3 | 27.4 | 0.00 | 0.00 | 0.00 | 33 | 1010.5 |
| 20260504173040 | 22 | 213 | 4.8 | 24.1 | 0.00 | 0.00 | 0.00 | 34 | 1010.4 |
| 20260504172520 | 22 | 236 | 9.7 | 24.1 | 0.00 | 0.00 | 0.00 | 34 | 1010.5 |
| 20260504172020 | 22 | 323 | 6.4 | 20.9 | 0.00 | 0.00 | 0.00 | 34 | 1010.6 |
| 20260504171547 | 21 | 250 | 6.4 | 24.1 | 0.00 | 0.00 | 0.00 | 34 | 1010.7 |
| 20260504171022 | 21 | 232 | 9.7 | 29.0 | 0.00 | 0.00 | 0.00 | 34 | 1010.8 |
| 20260504170521 | 21 | 0 | 8.0 | 29.0 | 0.00 | 0.00 | 0.00 | 35 | 1010.8 |
| 20260504151021 | 20 | 259 | 6.4 | 24.1 | 0.00 | 0.00 | 0.00 | 36 | 1012.3 |
| 20260504150522 | 19 | 244 | 9.7 | 24.1 | 0.00 | 0.00 | 0.00 | 36 | 1012.3 |
| 20260504141024 | 17 | 244 | 9.7 | 17.7 | 0.00 | 0.00 | 0.00 | 44 | 1012.3 |
| 20260504140521 | 17 | 232 | 6.4 | 22.5 | 0.00 | 0.00 | 0.00 | 45 | 1012.3 |
| 20260504130521 | 14 | 244 | 6.4 | 17.7 | 0.00 | 0.00 | 0.00 | 59 | 1013.2 |
| 20260504110521 | 5 | 0 | 0.0 | 0.0 | 0.00 | 0.00 | 0.00 | 79 | 1013.8 |
| 20260504100520 | 4 | 0 | 0.0 | 0.0 | 0.00 | 0.00 | 0.00 | 77 | 1013.6 |
| 20260504081542 | 5 | 0 | 0.0 | 0.0 | 0.00 | 0.00 | 0.00 | 72 | 1013.3 |
| 20260504081021 | 5 | 0 | 0.0 | 0.0 | 0.00 | 0.00 | 0.00 | 72 | 1013.2 |
| 20260504080521 | 5 | 0 | 0.0 | 0.0 | 0.00 | 0.00 | 0.00 | 71 | 1013.2 |
| 20260504050521 | 7 | 0 | 0.0 | 0.0 | 0.00 | 0.00 | 0.00 | 65 | 1012.9 |
| 20260504045521 | 7 | 0 | 0.0 | 0.0 | 0.00 | 0.00 | 0.00 | 65 | 1012.8 |
| 20260504045020 | 7 | 0 | 0.0 | 3.2 | 0.00 | 0.00 | 0.00 | 64 | 1012.8 |
| 20260504044536 | 7 | 0 | 0.0 | 3.2 | 0.00 | 0.00 | 0.00 | 64 | 1012.8 |
| 20260504044019 | 7 | 0 | 0.0 | 3.2 | 0.00 | 0.00 | 0.00 | 64 | 1012.8 |
| 20260504043521 | 8 | 360 | 0.0 | 1.6 | 0.00 | 0.00 | 0.00 | 63 | 1012.8 |
| 20260504043046 | 8 | 0 | 0.0 | 1.6 | 0.00 | 0.00 | 0.00 | 63 | 1012.7 |
| 20260504042521 | 8 | 360 | 0.0 | 1.6 | 0.00 | 0.00 | 0.00 | 63 | 1012.8 |
| 20260504042022 | 8 | 0 | 0.0 | 0.0 | 0.00 | 0.00 | 0.00 | 62 | 1012.7 |
| 20260504041538 | 8 | 0 | 0.0 | 0.0 | 0.00 | 0.00 | 0.00 | 61 | 1012.6 |
| 20260504041020 | 8 | 0 | 0.0 | 1.6 | 0.00 | 0.00 | 0.00 | 61 | 1012.5 |
| 20260504040521 | 8 | 0 | 0.0 | 1.6 | 0.00 | 0.00 | 0.00 | 61 | 1012.5 |
| 20260504040045 | 8 | 0 | 0.0 | 1.6 | 0.00 | 0.00 | 0.00 | 60 | 1012.6 |
| 20260504035522 | 8 | 0 | 0.0 | 1.6 | 0.00 | 0.00 | 0.00 | 60 | 1012.4 |
| 20260504035020 | 8 | 0 | 0.0 | 1.6 | 0.00 | 0.00 | 0.00 | 59 | 1012.3 |
| 20260504034538 | 9 | 0 | 0.0 | 1.6 | 0.00 | 0.00 | 0.00 | 58 | 1012.4 |
| 20260504034020 | 9 | 0 | 0.0 | 3.2 | 0.00 | 0.00 | 0.00 | 58 | 1012.3 |
| 20260504033520 | 9 | 360 | 0.0 | 3.2 | 0.00 | 0.00 | 0.00 | 57 | 1012.3 |
| 20260504033038 | 9 | 0 | 0.0 | 1.6 | 0.00 | 0.00 | 0.00 | 56 | 1012.3 |
| 20260504032521 | 10 | 0 | 0.0 | 1.6 | 0.00 | 0.00 | 0.00 | 55 | 1012.3 |
| 20260504032022 | 10 | 0 | 0.0 | 1.6 | 0.00 | 0.00 | 0.00 | 54 | 1012.3 |
| 20260504031540 | 10 | 0 | 0.0 | 0.0 | 0.00 | 0.00 | 0.00 | 53 | 1012.3 |
| 20260504031021 | 10 | 0 | 0.0 | 0.0 | 0.00 | 0.00 | 0.00 | 53 | 1012.2 |
| 20260504030521 | 10 | 0 | 0.0 | 1.6 | 0.00 | 0.00 | 0.00 | 52 | 1012.1 |
| 20260504030036 | 10 | 0 | 0.0 | 3.2 | 0.00 | 0.00 | 0.00 | 52 | 1012.2 |
| 20260504025521 | 10 | 0 | 0.0 | 3.2 | 0.00 | 0.00 | 0.00 | 50 | 1012.2 |
| 20260504025020 | 10 | 360 | 0.0 | 3.2 | 0.00 | 0.00 | 0.00 | 50 | 1012.2 |
| 20260504024544 | 10 | 360 | 0.0 | 3.2 | 0.00 | 0.00 | 0.00 | 50 | 1012.2 |
| 20260504024021 | 11 | 360 | 0.0 | 4.8 | 0.00 | 0.00 | 0.00 | 49 | 1012.2 |
| 20260504023520 | 11 | 0 | 0.0 | 4.8 | 0.00 | 0.00 | 0.00 | 49 | 1012.2 |
| 20260504023041 | 11 | 360 | 1.6 | 4.8 | 0.00 | 0.00 | 0.00 | 48 | 1012.2 |
| 20260504022521 | 11 | 360 | 0.0 | 3.2 | 0.00 | 0.00 | 0.00 | 47 | 1012.2 |
| 20260504022020 | 11 | 0 | 0.0 | 4.8 | 0.00 | 0.00 | 0.00 | 47 | 1012.2 |
| 20260504021539 | 11 | 0 | 0.0 | 4.8 | 0.00 | 0.00 | 0.00 | 47 | 1012.2 |
| 20260504021020 | 11 | 0 | 0.0 | 4.8 | 0.00 | 0.00 | 0.00 | 46 | 1012.1 |
| 20260504020520 | 11 | 360 | 0.0 | 4.8 | 0.00 | 0.00 | 0.00 | 46 | 1012.1 |
| 20260504020037 | 11 | 360 | 0.0 | 3.2 | 0.00 | 0.00 | 0.00 | 45 | 1012.1 |
| 20260504015520 | 12 | 0 | 0.0 | 0.0 | 0.00 | 0.00 | 0.00 | 44 | 1012.2 |
| 20260504015024 | 12 | 0 | 0.0 | 0.0 | 0.00 | 0.00 | 0.00 | 44 | 1012.1 |
| 20260504014540 | 12 | 0 | 0.0 | 1.6 | 0.00 | 0.00 | 0.00 | 44 | 1012.0 |
| 20260504014020 | 12 | 0 | 0.0 | 1.6 | 0.00 | 0.00 | 0.00 | 43 | 1012.0 |
| 20260504013520 | 12 | 0 | 0.0 | 3.2 | 0.00 | 0.00 | 0.00 | 42 | 1012.0 |
| 20260504013049 | 12 | 0 | 0.0 | 3.2 | 0.00 | 0.00 | 0.00 | 42 | 1011.9 |
| 20260504012524 | 12 | 360 | 0.0 | 1.6 | 0.00 | 0.00 | 0.00 | 41 | 1011.8 |
| 20260504012020 | 12 | 0 | 0.0 | 1.6 | 0.00 | 0.00 | 0.00 | 40 | 1011.7 |
| 20260504011540 | 13 | 0 | 0.0 | 1.6 | 0.00 | 0.00 | 0.00 | 40 | 1011.6 |
| 20260504011019 | 13 | 0 | 0.0 | 1.6 | 0.00 | 0.00 | 0.00 | 39 | 1011.6 |
| 20260504010519 | 13 | 0 | 0.0 | 1.6 | 0.00 | 0.00 | 0.00 | 39 | 1011.5 |
| 20260504010046 | 13 | 0 | 0.0 | 1.6 | 0.00 | 0.00 | 0.00 | 38 | 1011.4 |
| 20260504005521 | 13 | 0 | 0.0 | 1.6 | 0.00 | 0.00 | 0.00 | 37 | 1011.4 |
| 20260504005023 | 13 | 0 | 0.0 | 1.6 | 0.00 | 0.00 | 0.00 | 37 | 1011.3 |
| 20260504004541 | 14 | 0 | 0.0 | 1.6 | 0.00 | 0.00 | 0.00 | 37 | 1011.3 |
| 20260504004020 | 14 | 0 | 0.0 | 1.6 | 0.00 | 0.00 | 0.00 | 36 | 1011.2 |
| 20260504003520 | 14 | 0 | 0.0 | 1.6 | 0.00 | 0.00 | 0.00 | 36 | 1011.2 |
| 20260504003038 | 14 | 0 | 0.0 | 4.8 | 0.00 | 0.00 | 0.00 | 35 | 1011.1 |
| 20260504002520 | 15 | 0 | 0.0 | 4.8 | 0.00 | 0.00 | 0.00 | 35 | 1011.1 |
| 20260504002020 | 15 | 0 | 1.6 | 8.0 | 0.00 | 0.00 | 0.00 | 34 | 1010.9 |
| 20260504001540 | 15 | 360 | 1.6 | 8.0 | 0.00 | 0.00 | 0.00 | 34 | 1010.8 |
| 20260504001020 | 15 | 360 | 1.6 | 8.0 | 0.00 | 0.00 | 0.00 | 34 | 1010.7 |
| 20260504000520 | 15 | 360 | 3.2 | 9.7 | 0.00 | 0.00 | 0.00 | 33 | 1010.6 |
| 20260504000042 | 15 | 360 | 4.8 | 12.9 | 0.00 | 0.00 | 0.00 | 33 | 1010.4 |
| 20260503235520 | 15 | 360 | 4.8 | 12.9 | 0.00 | 0.00 | 0.00 | 32 | 1010.5 |
| 20260503235019 | 15 | 360 | 6.4 | 20.9 | 0.00 | 0.00 | 0.00 | 32 | 1010.4 |
| 20260503234543 | 15 | 360 | 4.8 | 20.9 | 0.00 | 0.00 | 0.00 | 32 | 1010.4 |
| 20260503234021 | 15 | 360 | 8.0 | 20.9 | 0.00 | 0.00 | 0.00 | 31 | 1010.4 |
| 20260503233521 | 16 | 360 | 9.7 | 24.1 | 0.00 | 0.00 | 0.00 | 31 | 1010.4 |
| 20260503233042 | 16 | 211 | 8.0 | 24.1 | 0.00 | 0.00 | 0.00 | 31 | 1010.4 |
| 20260503232523 | 16 | 242 | 9.7 | 24.1 | 0.00 | 0.00 | 0.00 | 30 | 1010.2 |
| 20260503232022 | 16 | 248 | 8.0 | 20.9 | 0.00 | 0.00 | 0.00 | 30 | 1010.2 |
| 20260503231541 | 16 | 260 | 9.7 | 20.9 | 0.00 | 0.00 | 0.00 | 30 | 1010.2 |
| 20260503231023 | 16 | 278 | 4.8 | 25.7 | 0.00 | 0.00 | 0.00 | 30 | 1010.2 |
| 20260503230526 | 16 | 235 | 12.9 | 25.7 | 0.00 | 0.00 | 0.00 | 29 | 1010.2 |
| 20260503230038 | 16 | 225 | 9.7 | 19.3 | 0.00 | 0.00 | 0.00 | 29 | 1010.1 |
| 20260503225522 | 16 | 360 | 8.0 | 19.3 | 0.00 | 0.00 | 0.00 | 29 | 1010.1 |
| 20260503225022 | 16 | 360 | 8.0 | 20.9 | 0.00 | 0.00 | 0.00 | 29 | 1010.0 |
| 20260503224537 | 16 | 360 | 11.3 | 25.7 | 0.00 | 0.00 | 0.00 | 29 | 1010.0 |
| 20260503224022 | 16 | 360 | 14.5 | 25.7 | 0.00 | 0.00 | 0.00 | 29 | 1010.1 |
| 20260503223522 | 16 | 360 | 11.3 | 25.7 | 0.00 | 0.00 | 0.00 | 29 | 1010.1 |
| 20260503223037 | 16 | 360 | 9.7 | 29.0 | 0.00 | 0.00 | 0.00 | 29 | 1010.0 |
| 20260503222522 | 16 | 219 | 9.7 | 29.0 | 0.00 | 0.00 | 0.00 | 29 | 1010.1 |
| 20260503222022 | 16 | 252 | 8.0 | 20.9 | 0.00 | 0.00 | 0.00 | 29 | 1010.0 |
| 20260503221543 | 16 | 210 | 8.0 | 25.7 | 0.00 | 0.00 | 0.00 | 29 | 1010.0 |
| 20260503221022 | 16 | 224 | 11.3 | 25.7 | 0.00 | 0.00 | 0.00 | 28 | 1009.9 |
| 20260503220522 | 16 | 222 | 8.0 | 17.7 | 0.00 | 0.00 | 0.00 | 28 | 1010.0 |
| 20260503220041 | 16 | 255 | 8.0 | 27.4 | 0.00 | 0.00 | 0.00 | 29 | 1010.0 |
| 20260503215521 | 16 | 210 | 8.0 | 27.4 | 0.00 | 0.00 | 0.00 | 28 | 1010.0 |
| 20260503215021 | 16 | 250 | 14.5 | 27.4 | 0.00 | 0.00 | 0.00 | 28 | 1010.1 |
| 20260503214541 | 16 | 267 | 11.3 | 22.5 | 0.00 | 0.00 | 0.00 | 28 | 1010.1 |
| 20260503214022 | 16 | 222 | 9.7 | 24.1 | 0.00 | 0.00 | 0.00 | 29 | 1009.9 |
| 20260503213522 | 16 | 238 | 9.7 | 29.0 | 0.00 | 0.00 | 0.00 | 28 | 1010.1 |
| 20260503213037 | 16 | 296 | 11.3 | 29.0 | 0.00 | 0.00 | 0.00 | 29 | 1010.1 |
| 20260503212523 | 16 | 242 | 14.5 | 29.0 | 0.00 | 0.00 | 0.00 | 28 | 1010.0 |
| 20260503212023 | 16 | 230 | 16.1 | 27.4 | 0.00 | 0.00 | 0.00 | 29 | 1010.1 |
| 20260503211538 | 16 | 249 | 16.1 | 32.2 | 0.00 | 0.00 | 0.00 | 28 | 1010.0 |
| 20260503211022 | 16 | 293 | 12.9 | 32.2 | 0.00 | 0.00 | 0.00 | 28 | 1010.1 |
| 20260503210522 | 16 | 283 | 14.5 | 30.6 | 0.00 | 0.00 | 0.00 | 28 | 1010.1 |
| 20260503210043 | 16 | 259 | 11.3 | 24.1 | 0.00 | 0.00 | 0.00 | 29 | 1010.1 |
| 20260503205524 | 16 | 281 | 12.9 | 25.7 | 0.00 | 0.00 | 0.00 | 29 | 1010.0 |
| 20260503205022 | 16 | 248 | 12.9 | 30.6 | 0.00 | 0.00 | 0.00 | 29 | 1010.1 |
| 20260503204543 | 16 | 231 | 16.1 | 30.6 | 0.00 | 0.00 | 0.00 | 29 | 1010.1 |
| 20260503204022 | 16 | 261 | 8.0 | 29.0 | 0.00 | 0.00 | 0.00 | 29 | 1010.1 |
| 20260503203522 | 15 | 360 | 12.9 | 29.0 | 0.00 | 0.00 | 0.00 | 29 | 1010.1 |
| 20260503203049 | 15 | 360 | 14.5 | 29.0 | 0.00 | 0.00 | 0.00 | 30 | 1010.1 |
| 20260503202522 | 15 | 360 | 14.5 | 32.2 | 0.00 | 0.00 | 0.00 | 29 | 1010.1 |
| 20260503202021 | 15 | 360 | 16.1 | 32.2 | 0.00 | 0.00 | 0.00 | 29 | 1010.2 |
| 20260503201543 | 15 | 274 | 12.9 | 29.0 | 0.00 | 0.00 | 0.00 | 29 | 1010.1 |
| 20260503201059 | 15 | 249 | 14.5 | 30.6 | 0.00 | 0.00 | 0.00 | 28 | 1010.3 |
| 20260503200521 | 15 | 292 | 8.0 | 30.6 | 0.00 | 0.00 | 0.00 | 29 | 1010.3 |
| 20260503200038 | 15 | 274 | 14.5 | 30.6 | 0.00 | 0.00 | 0.00 | 28 | 1010.3 |
| 20260503195525 | 15 | 321 | 8.0 | 24.1 | 0.00 | 0.00 | 0.00 | 30 | 1010.2 |